When you browse on this site, cookies collect data to enhance your experience and personalize the content and advertising you see.
Visit our Privacy Policy to learn more. By continuing to use the site, you agree to this use of cookies and data.

Stündliche Wetter Bolshie Klochki

Heute, 29 September, Dienstag

Zeit Temperatur Niederschläge Wind Luftdruck Luftfeuchtigkeit
00:00 +10°C° 0.1 mm 2 m/S 745 mmHg 95%
01:00 +9°C° 0.1 mm 2 m/S 745 mmHg 96%
02:00 +9°C° 0.1 mm 2 m/S 745 mmHg 97%
03:00 +9°C° 0 mm 2 m/S 745 mmHg 96%
04:00 +9°C° 0 mm 2 m/S 745 mmHg 96%
05:00 +10°C° 0 mm 2 m/S 745 mmHg 96%
06:00 +10°C° 0 mm 2 m/S 745 mmHg 94%
07:00 +10°C° 0 mm 2 m/S 745 mmHg 93%
08:00 +10°C° 0 mm 2 m/S 745 mmHg 92%
09:00 +12°C° 0 mm 2 m/S 745 mmHg 88%
10:00 +13°C° 0 mm 2 m/S 745 mmHg 83%
11:00 +14°C° 0 mm 2 m/S 745 mmHg 79%
12:00 +15°C° 0 mm 1 m/S 745 mmHg 74%
13:00 +16°C° 0 mm 1 m/S 745 mmHg 69%
14:00 +18°C° 0 mm 1 m/S 745 mmHg 63%
15:00 +15°C° 0 mm 1 m/S 745 mmHg 69%
16:00 +14°C° 0 mm 1 m/S 744 mmHg 75%
17:00 +13°C° 0 mm 1 m/S 744 mmHg 81%
18:00 +12°C° 0 mm 1 m/S 744 mmHg 84%
19:00 +11°C° 0 mm 1 m/S 744 mmHg 88%
20:00 +10°C° 0 mm 2 m/S 744 mmHg 92%
21:00 +10°C° 0 mm 1 m/S 744 mmHg 90%
22:00 +10°C° 0 mm 1 m/S 744 mmHg 89%
23:00 +9°C° 0 mm 1 m/S 744 mmHg 88%

Morgen, 30 September, Mittwoch

Zeit Temperatur Niederschläge Wind Luftdruck Luftfeuchtigkeit
00:00 +9°C° 0 mm 1 m/S 744 mmHg 87%
01:00 +8°C° 0 mm 2 m/S 744 mmHg 86%
02:00 +8°C° 0 mm 2 m/S 744 mmHg 85%
03:00 +8°C° 0 mm 2 m/S 744 mmHg 82%
04:00 +7°C° 0 mm 2 m/S 744 mmHg 80%
05:00 +7°C° 0 mm 2 m/S 744 mmHg 77%
06:00 +8°C° 0 mm 2 m/S 744 mmHg 73%
07:00 +9°C° 0 mm 2 m/S 744 mmHg 69%
08:00 +9°C° 0 mm 3 m/S 744 mmHg 65%
09:00 +11°C° 0 mm 3 m/S 744 mmHg 61%
10:00 +12°C° 0 mm 3 m/S 744 mmHg 57%
11:00 +14°C° 0 mm 3 m/S 744 mmHg 53%
12:00 +14°C° 0 mm 3 m/S 743 mmHg 53%
13:00 +16°C° 0 mm 3 m/S 743 mmHg 53%
14:00 +16°C° 0 mm 3 m/S 743 mmHg 53%
15:00 +14°C° 0 mm 3 m/S 743 mmHg 59%
16:00 +13°C° 0 mm 3 m/S 743 mmHg 65%
17:00 +13°C° 0 mm 2 m/S 743 mmHg 71%
18:00 +12°C° 0 mm 2 m/S 744 mmHg 73%
19:00 +10°C° 0 mm 2 m/S 744 mmHg 75%
20:00 +10°C° 0 mm 3 m/S 744 mmHg 77%
21:00 +9°C° 0 mm 3 m/S 744 mmHg 78%
22:00 +9°C° 0 mm 2 m/S 744 mmHg 79%
23:00 +9°C° 0 mm 2 m/S 744 mmHg 80%

übermorgen, 1 Oktober, Donnerstag

Zeit Temperatur Niederschläge Wind Luftdruck Luftfeuchtigkeit
00:00 +9°C° 0 mm 2 m/S 744 mmHg 82%
01:00 +8°C° 0 mm 2 m/S 744 mmHg 85%
02:00 +8°C° 0 mm 2 m/S 744 mmHg 87%
03:00 +8°C° 0 mm 2 m/S 744 mmHg 88%
04:00 +7°C° 0 mm 3 m/S 744 mmHg 89%
05:00 +7°C° 0 mm 3 m/S 744 mmHg 89%
06:00 +8°C° 0 mm 3 m/S 744 mmHg 85%
07:00 +9°C° 0 mm 3 m/S 744 mmHg 80%
08:00 +10°C° 0 mm 3 m/S 744 mmHg 75%
09:00 +11°C° 0 mm 3 m/S 744 mmHg 70%
10:00 +13°C° 0 mm 3 m/S 744 mmHg 64%
11:00 +16°C° 0 mm 3 m/S 744 mmHg 58%
12:00 +15°C° 0 mm 4 m/S 744 mmHg 56%
13:00 +17°C° 0 mm 4 m/S 744 mmHg 54%
14:00 +18°C° 0 mm 4 m/S 744 mmHg 52%
15:00 +15°C° 0 mm 4 m/S 744 mmHg 57%
16:00 +14°C° 0 mm 3 m/S 744 mmHg 62%
17:00 +13°C° 0 mm 3 m/S 744 mmHg 67%
18:00 +12°C° 0 mm 3 m/S 744 mmHg 69%
19:00 +11°C° 0 mm 3 m/S 745 mmHg 70%
20:00 +10°C° 0 mm 3 m/S 745 mmHg 71%
21:00 +10°C° 0 mm 3 m/S 745 mmHg 72%
22:00 +9°C° 0 mm 3 m/S 745 mmHg 72%
23:00 +9°C° 0 mm 2 m/S 745 mmHg 73%

2 Oktober, Freitag

Zeit Temperatur Niederschläge Wind Luftdruck Luftfeuchtigkeit
00:00 +9°C° 0 mm 3 m/S 745 mmHg 74%
01:00 +8°C° 0 mm 3 m/S 745 mmHg 75%
02:00 +8°C° 0 mm 3 m/S 745 mmHg 76%
03:00 +8°C° 0 mm 3 m/S 745 mmHg 77%
04:00 +8°C° 0 mm 3 m/S 745 mmHg 78%
05:00 +8°C° 0 mm 3 m/S 745 mmHg 79%
06:00 +8°C° 0 mm 3 m/S 745 mmHg 77%
07:00 +9°C° 0 mm 3 m/S 745 mmHg 74%
08:00 +10°C° 0 mm 3 m/S 745 mmHg 71%
09:00 +11°C° 0 mm 3 m/S 746 mmHg 68%
10:00 +13°C° 0 mm 3 m/S 746 mmHg 64%
11:00 +14°C° 0 mm 3 m/S 746 mmHg 60%
12:00 +14°C° 0 mm 3 m/S 746 mmHg 59%
13:00 +15°C° 0 mm 4 m/S 746 mmHg 57%
14:00 +17°C° 0 mm 4 m/S 746 mmHg 56%
15:00 +16°C° 0 mm 3 m/S 746 mmHg 62%
16:00 +13°C° 0 mm 3 m/S 746 mmHg 67%
17:00 +12°C° 0 mm 3 m/S 746 mmHg 73%
18:00 +12°C° 0 mm 3 m/S 746 mmHg 75%
19:00 +11°C° 0 mm 3 m/S 746 mmHg 77%
20:00 +11°C° 0 mm 3 m/S 746 mmHg 79%
21:00 +11°C° 0 mm 3 m/S 746 mmHg 80%
22:00 +11°C° 0 mm 3 m/S 746 mmHg 81%
23:00 +10°C° 0 mm 3 m/S 746 mmHg 83%

3 Oktober, Samstag

Zeit Temperatur Niederschläge Wind Luftdruck Luftfeuchtigkeit
00:00 +10°C° 0 mm 2 m/S 746 mmHg 84%
01:00 +10°C° 0 mm 2 m/S 746 mmHg 86%
02:00 +9°C° 0 mm 2 m/S 746 mmHg 87%
03:00 +9°C° 0 mm 2 m/S 746 mmHg 88%
04:00 +9°C° 0 mm 3 m/S 746 mmHg 88%
05:00 +9°C° 0 mm 3 m/S 746 mmHg 89%
06:00 +10°C° 0 mm 3 m/S 746 mmHg 86%
07:00 +10°C° 0 mm 3 m/S 746 mmHg 82%
08:00 +11°C° 0 mm 3 m/S 746 mmHg 79%
09:00 +12°C° 0 mm 3 m/S 746 mmHg 75%
10:00 +13°C° 0 mm 3 m/S 746 mmHg 71%
11:00 +14°C° 0 mm 3 m/S 746 mmHg 67%
12:00 +16°C° 0 mm 3 m/S 746 mmHg 65%
13:00 +16°C° 0 mm 3 m/S 746 mmHg 64%
14:00 +16°C° 0 mm 3 m/S 746 mmHg 63%
15:00 +14°C° 0 mm 3 m/S 746 mmHg 67%
16:00 +13°C° 0 mm 3 m/S 746 mmHg 72%
17:00 +13°C° 0 mm 2 m/S 746 mmHg 76%
18:00 +13°C° 0 mm 2 m/S 746 mmHg 77%
19:00 +11°C° 0 mm 3 m/S 746 mmHg 78%
20:00 +11°C° 0 mm 3 m/S 746 mmHg 79%
21:00 +10°C° 0 mm 3 m/S 746 mmHg 79%
22:00 +10°C° 0 mm 3 m/S 746 mmHg 80%
23:00 +10°C° 0 mm 2 m/S 746 mmHg 80%

4 Oktober, Sonntag

Zeit Temperatur Niederschläge Wind Luftdruck Luftfeuchtigkeit
00:00 +9°C° 0 mm 2 m/S 746 mmHg 81%
01:00 +9°C° 0 mm 2 m/S 746 mmHg 82%
02:00 +8°C° 0 mm 2 m/S 746 mmHg 83%
03:00 +8°C° 0 mm 2 m/S 745 mmHg 84%
04:00 +7°C° 0 mm 2 m/S 745 mmHg 85%
05:00 +7°C° 0 mm 2 m/S 745 mmHg 87%
06:00 +8°C° 0 mm 3 m/S 745 mmHg 83%
07:00 +9°C° 0 mm 3 m/S 745 mmHg 80%
08:00 +10°C° 0 mm 3 m/S 745 mmHg 76%
09:00 +11°C° 0 mm 4 m/S 745 mmHg 71%
10:00 +12°C° 0 mm 4 m/S 745 mmHg 65%
11:00 +14°C° 0 mm 4 m/S 745 mmHg 60%
12:00 +14°C° 0 mm 4 m/S 745 mmHg 58%
13:00 +15°C° 0 mm 4 m/S 745 mmHg 56%
14:00 +15°C° 0 mm 4 m/S 745 mmHg 53%
15:00 +14°C° 0 mm 4 m/S 745 mmHg 58%
16:00 +13°C° 0 mm 3 m/S 745 mmHg 63%
17:00 +12°C° 0 mm 3 m/S 744 mmHg 67%
18:00 +11°C° 0 mm 3 m/S 744 mmHg 70%
19:00 +10°C° 0 mm 3 m/S 744 mmHg 73%
20:00 +10°C° 0 mm 3 m/S 744 mmHg 75%
21:00 +10°C° 0 mm 3 m/S 744 mmHg 77%
22:00 +10°C° 0 mm 3 m/S 744 mmHg 79%
23:00 +9°C° 0 mm 3 m/S 745 mmHg 81%
Mehr zeigen